Location: Atherton
(17.2661°S, 145.4859°E)
Time: 04:43:56
(UTC+10:00)

Hubble Space Telescope - Pass Details

Date: 12 February 2026
Orbit: 476 x 479 km, 28.5° (Epoch: 6 March)

Event Time Altitude Azimuth Distance (km) Brightness Sun altitude
Rises 21:12:54 0° 259° (W) 2,519 5.2 -31.9°
Reaches altitude 10° 21:15:31 10° 242° (WSW) 1,643 4.1 -32.5°
Enters shadow 21:16:26 14° 231° (SW) 1,393 3.6 -32.7°
